This demonstration page uses our WeatherBlox Daily Observations layout. Learn more.

Left ArrowRight Arrow

44.8408, -93.29828

Hourly Observations for April 5, 2019

Temp ( °F °C ) Dew Point ( °F °C ) Humidity (%) Winds ( mph kmh ) Pressure ( in mb ) Visibility ( mi km ) Precip ( " mm )
12:53 am 00:53 Cloudy with Mist and Fog 35 1.7 34 1.1 96 96 SE 8 13 30.13 1020 4 6 0.00 0.00
1:53 am 01:53 Cloudy 35 1.7 33 0.6 93 93 SE 8 13 30.11 1020 7 11 0.00 0.00
2:53 am 02:53 Cloudy 35 1.7 33 0.6 93 93 SSE 7 11 30.10 1019 8 13 0.00 0.00
3:53 am 03:53 Cloudy 35 1.7 33 0.6 93 93 SE 6 9 30.08 1019 7 11 0.00 0.00
4:53 am 04:53 Cloudy with Mist and Fog 35 1.7 34 1.1 96 96 SE 7 11 30.07 1018 5 8 0.00 0.00
5:35 am 05:35 Cloudy with Mist and Fog 35 1.7 34 1.1 96 96 SSE 7 11 30.08 1019 4 6 0.00 0.00
5:53 am 05:53 Cloudy with Mist and Fog 35 1.7 34 1.1 96 96 SE 6 9 30.06 1018 4 6 0.00 0.00
6:53 am 06:53 Cloudy with Mist and Fog 36 2.2 35 1.7 97 97 SE 5 7 30.07 1018 4 6 0.00 0.00
7:23 am 07:23 Cloudy with Drizzle 36 2.2 35 1.7 97 97 SE 5 7 30.08 1019 2 3 0.00 0.03
7:28 am 07:28 Cloudy with Drizzle 36 2.2 35 1.7 97 97 SE 5 7 30.08 1019 2 3 0.00 0.03
7:53 am 07:53 Cloudy with Drizzle 36 2.2 35 1.7 97 97 SE 3 6 30.07 1018 2 3 0.00 0.03
8:25 am 08:25 Cloudy with Drizzle 37 2.8 35 1.7 93 93 SSE 5 7 30.08 1018 2 2 0.00 0.03
8:53 am 08:53 Cloudy with Drizzle 37 2.8 36 2.2 96 96 SE 5 7 30.07 1018 2 2 0.00 0.03
9:05 am 09:05 Cloudy with Drizzle 37 2.8 36 2.2 96 96 SE 3 6 30.08 1018 1 2 0.00 0.03
9:53 am 09:53 Cloudy with Drizzle 38 3.3 37 2.8 97 97 SE 3 6 30.07 1018 1 2 0.00 0.03
10:53 am 10:53 Cloudy with Drizzle 40 4.4 39 3.9 97 97 SE 3 6 30.07 1018 1 2 0.00 0.03
11:53 am 11:53 Cloudy with Mist and Fog 43 6.1 40 4.4 89 89 Calm 30.08 1019 1 2 0.00 0.03
11:55 am 11:55 Cloudy with Mist and Fog 43 6.1 40 4.4 89 89 Calm 30.07 1018 2 3 0.00 0.00
12:02 pm 12:02 Cloudy with Mist and Fog 43 6.1 40 4.4 89 89 Calm 30.07 1018 2 3 0.00 0.00
12:53 pm 12:53 Cloudy with Mist and Fog 45 7.2 41 5 86 86 Calm 30.06 1018 2 3 0.00 0.00
1:01 pm 13:01 Cloudy with Mist and Fog 46 7.8 42 5.6 86 86 E 5 7 30.05 1018 5 8 0.00 0.00
1:17 pm 13:17 Cloudy with Haze 46 7.8 41 5 83 83 E 5 7 30.05 1018 5 8 0.00 0.00
1:53 pm 13:53 Cloudy with Haze 47 8.3 42 5.6 83 83 SE 5 7 30.04 1017 6 10 0.00 0.00
2:53 pm 14:53 Cloudy with Haze 49 9.4 42 5.6 77 77 VRB 3 6 30.03 1017 6 10 0.00 0.00
3:53 pm 15:53 Cloudy 50 10 42 5.6 74 74 SW 7 11 30.02 1017 7 11 0.00 0.00
4:53 pm 16:53 Cloudy 51 10.6 42 5.6 71 71 Calm 30.03 1017 7 11 0.00 0.00
5:53 pm 17:53 Cloudy 51 10.6 42 5.6 71 71 VRB 3 6 30.02 1017 7 11 0.00 0.00
6:53 pm 18:53 Cloudy with Haze 51 10.6 42 5.6 71 71 ENE 6 9 30.01 1016 6 10 0.00 0.00
7:53 pm 19:53 Mostly Cloudy with Haze 49 9.4 42 5.6 77 77 E 6 9 30.02 1017 5 8 0.00 0.00
8:03 pm 20:03 Mostly Cloudy with Haze 49 9.4 42 5.6 77 77 ESE 7 11 30.01 1016 6 10 0.00 0.00
8:53 pm 20:53 Mostly Cloudy with Haze 47 8.3 42 5.6 83 83 ENE 9 15 30.02 1017 6 10 0.00 0.00
9:53 pm 21:53 Cloudy with Light Rain 46 7.8 42 5.6 86 86 SE 7 11 30.03 1017 6 10 0.00 0.03
10:53 pm 22:53 Cloudy with Mist and Fog 46 7.8 43 6.1 89 89 SE 5 7 30.02 1017 6 10 0.00 0.03
11:53 pm 23:53 Cloudy with Mist and Fog 47 8.3 43 6.1 86 86 ENE 5 7 30.03 1017 5 8 0.01 0.25

Powered by AerisWeather